Riverdale, MD

2:44 PM EST on February 06, 2016 (GMT -0500)
College Park

Weather History for KCGS - January, 2014

Change the Weather History Date:

Wednesday, January 1, 2014

  Actual Average Record
Temperature  
Mean Temperature 37 °F -  
Max Temperature 47 °F 44 °F - (-1)
Min Temperature 27 °F 29 °F - (-1)
Degree Days  
Heating Degree Days 28    
Moisture  
Dew Point 25 °F    
Average Humidity 70    
Maximum Humidity 96    
Minimum Humidity 40    
Precipitation  
Precipitation 0.00 in - - ()
Sea Level Pressure  
Sea Level Pressure 30.31 in    
Wind  
Wind Speed 1 mph (South)    
Max Wind Speed 8 mph    
Max Gust Speed -    
Visibility 10 miles    
Events      
Averages and records for this station are not official NWS values.
T = Trace of Precipitation, MM = Missing Value Source: NWS Daily Summary

Daily Weather History Graph

Daily Weather History Graph

Search for Another Location

Airport or City:

Trip Planner

Search our weather history database for the weather conditions in past years. The results will help you decide how hot, cold, wet, or windy it might be!

Date:

Astronomy

Jan. 01, 2014 Rise Set
Actual Time 7:26 AM EST 4:56 PM EST
Civil Twilight 6:56 AM EST 5:26 PM EST
Nautical Twilight 6:23 AM EST 5:59 PM EST
Astronomical Twilight 5:50 AM EST 6:31 PM EST
Moon 7:15 AM EST (1/1) 5:38 PM EST (1/1)
Length of Visible Light 10h 29m
Length of Day
9h 29m
New Moon, 0% of the Moon is Illuminated
Jan 1
New Moon
Jan 7
First Quarter
Jan 15
Full
Jan 24
Last Quarter
Jan 30
New

Hourly Weather History & Observations

Time (EST) Temp. Windchill Dew Point Humidity Pressure Visibility Wind Dir Wind Speed Gust Speed Precip Events Conditions
12:00 AM 31.8 °F - 16.7 °F 54% 30.34 in 10.0 mi Calm Calm - N/A   Clear
12:20 AM 29.8 °F - 19.6 °F 66% 30.34 in 10.0 mi Calm Calm - N/A   Clear
12:40 AM 28.8 °F - 22.1 °F 76% 30.34 in 10.0 mi Calm Calm - N/A   Clear
1:00 AM 30.4 °F - 19.2 °F 63% 30.34 in 10.0 mi Calm Calm - N/A   Clear
1:20 AM 30.6 °F - 19.4 °F 63% 30.34 in 10.0 mi Calm Calm - N/A   Clear
1:40 AM 29.5 °F - 20.3 °F 69% 30.34 in 10.0 mi Calm Calm - N/A   Clear
1:55 AM 28.4 °F - 20.5 °F 72% 30.34 in 10.0 mi Calm Calm - N/A   Scattered Clouds
2:20 AM 27.3 °F - 21.4 °F 78% 30.35 in 10.0 mi Calm Calm - N/A   Mostly Cloudy
2:40 AM 27.7 °F - 22.1 °F 80% 30.36 in 10.0 mi Calm Calm - N/A   Mostly Cloudy
3:00 AM 28.0 °F - 22.1 °F 78% 30.38 in 10.0 mi Calm Calm - N/A   Scattered Clouds
3:20 AM 27.3 °F - 22.5 °F 82% 30.37 in 10.0 mi Calm Calm - N/A   Clear
3:40 AM 28.0 °F - 22.1 °F 78% 30.37 in 10.0 mi Calm Calm - N/A   Clear
4:00 AM 27.0 °F - 22.3 °F 83% 30.37 in 10.0 mi Calm Calm - N/A   Clear
4:20 AM 27.5 °F - 22.8 °F 83% 30.37 in 10.0 mi Calm Calm - N/A   Clear
4:40 AM 28.0 °F - 22.1 °F 78% 30.37 in 10.0 mi Calm Calm - N/A   Clear
5:00 AM 28.2 °F - 23.0 °F 81% 30.38 in 10.0 mi Calm Calm - N/A   Clear
5:20 AM 28.8 °F - 22.5 °F 77% 30.38 in 10.0 mi Calm Calm - N/A   Clear
5:40 AM 28.9 °F - 22.8 °F 78% 30.39 in 10.0 mi Calm Calm - N/A   Clear
6:00 AM 28.9 °F - 23.2 °F 79% 30.39 in 10.0 mi Calm Calm - N/A   Clear
6:20 AM 29.3 °F - 24.1 °F 81% 30.40 in 10.0 mi Calm Calm - N/A   Clear
6:40 AM 29.3 °F - 23.9 °F 80% 30.40 in 10.0 mi Calm Calm - N/A   Clear
7:00 AM 29.3 °F - 24.8 °F 83% 30.40 in 10.0 mi Calm Calm - N/A   Clear
7:20 AM 30.0 °F - 24.4 °F 80% 30.41 in 10.0 mi Calm Calm - N/A   Scattered Clouds
7:40 AM 29.8 °F - 23.9 °F 79% 30.41 in 10.0 mi Calm Calm - N/A   Overcast
8:00 AM 30.0 °F - 25.2 °F 82% 30.41 in 10.0 mi Calm Calm - N/A   Mostly Cloudy
8:20 AM 31.3 °F - 23.9 °F 74% 30.42 in 10.0 mi Calm Calm - N/A   Mostly Cloudy
8:40 AM 32.0 °F - 24.1 °F 73% 30.42 in 10.0 mi Calm Calm - N/A   Overcast
9:00 AM 33.4 °F 29.1 °F 23.0 °F 66% 30.42 in 10.0 mi South 4.6 mph - N/A   Mostly Cloudy
9:20 AM 35.8 °F - 22.8 °F 59% 30.42 in 10.0 mi Calm Calm - N/A   Scattered Clouds
9:40 AM 37.4 °F 32.1 °F 19.2 °F 48% 30.42 in 10.0 mi SSE 6.9 mph - N/A   Clear
10:05 AM 38.5 °F 35.0 °F 20.3 °F 48% 30.43 in 10.0 mi SSW 4.6 mph - N/A   Clear
10:25 AM 39.2 °F 34.2 °F 21.9 °F 50% 30.43 in 10.0 mi SSE 6.9 mph - N/A   Clear
10:45 AM 40.5 °F 37.3 °F 22.6 °F 49% 30.41 in 10.0 mi South 4.6 mph - N/A   Clear
11:05 AM 41.9 °F 38.2 °F 23.9 °F 49% 30.40 in 10.0 mi SSW 5.8 mph - N/A   Clear
11:25 AM 41.5 °F 38.6 °F 24.3 °F 50% 30.39 in 10.0 mi South 4.6 mph - N/A   Clear
11:45 AM 42.6 °F 39.9 °F 23.9 °F 48% 30.37 in 10.0 mi South 4.6 mph - N/A   Clear
12:05 PM 43.3 °F - 24.3 °F 47% 30.35 in 10.0 mi Calm Calm - N/A   Clear
12:25 PM 43.7 °F 39.1 °F 24.4 °F 47% 30.35 in 10.0 mi South 8.1 mph - N/A   Clear
12:45 PM 44.4 °F 42.0 °F 25.2 °F 47% 30.33 in 10.0 mi SW 4.6 mph - N/A   Clear
1:00 PM 44.8 °F 41.6 °F 25.0 °F 46% 30.33 in 10.0 mi SSE 5.8 mph - N/A   Clear
1:25 PM 45.7 °F - 25.2 °F 45% 30.32 in 10.0 mi Calm Calm - N/A   Clear
1:45 PM 45.1 °F - 24.8 °F 45% 30.30 in 10.0 mi Calm Calm - N/A   Clear
2:05 PM 45.5 °F 43.2 °F 24.8 °F 44% 30.29 in 10.0 mi South 4.6 mph - N/A   Clear
2:25 PM 45.9 °F - 25.5 °F 45% 30.28 in 10.0 mi Calm Calm - N/A   Clear
2:45 PM 46.0 °F - 25.9 °F 45% 30.27 in 10.0 mi Calm Calm - N/A   Clear
3:05 PM 46.9 °F - 26.4 °F 45% 30.26 in 10.0 mi Calm Calm - N/A   Clear
3:25 PM 47.5 °F - 24.8 °F 41% 30.26 in 10.0 mi SSE 5.8 mph - N/A   Clear
3:45 PM 47.3 °F - 24.6 °F 41% 30.26 in 10.0 mi SSE 6.9 mph - N/A   Clear
4:00 PM 47.5 °F - 24.3 °F 40% 30.26 in 10.0 mi South 4.6 mph - N/A   Clear
4:25 PM 46.8 °F - 28.0 °F 48% 30.25 in 10.0 mi East 3.5 mph - N/A   Clear
4:45 PM 43.9 °F - 28.8 °F 55% 30.25 in 10.0 mi Calm Calm - N/A   Clear
5:05 PM 41.4 °F - 29.1 °F 62% 30.24 in 10.0 mi Calm Calm - N/A   Clear
5:25 PM 39.6 °F - 29.5 °F 67% 30.24 in 10.0 mi Calm Calm - N/A   Clear
5:45 PM 37.6 °F - 30.7 °F 76% 30.24 in 10.0 mi Calm Calm - N/A   Clear
6:05 PM 36.3 °F - 30.7 °F 80% 30.24 in 10.0 mi Calm Calm - N/A   Clear
6:25 PM 34.7 °F - 31.8 °F 89% 30.24 in 10.0 mi Calm Calm - N/A   Clear
6:45 PM 34.2 °F - 31.8 °F 91% 30.23 in 10.0 mi Calm Calm - N/A   Clear
7:05 PM 33.3 °F - 30.2 °F 89% - 10.0 mi Calm Calm - N/A   Clear
7:25 PM 34.0 °F - 30.7 °F 88% 30.22 in 10.0 mi Calm Calm - N/A   Clear
7:45 PM 33.8 °F - 31.1 °F 90% 30.22 in 10.0 mi Calm Calm - N/A   Clear
8:05 PM 33.4 °F - 31.1 °F 91% 30.21 in 10.0 mi Calm Calm - N/A   Clear
8:25 PM 34.2 °F - 30.7 °F 87% 30.20 in 10.0 mi Calm Calm - N/A   Clear
8:45 PM 34.7 °F - 30.7 °F 85% 30.20 in 10.0 mi Calm Calm - N/A   Clear
9:00 PM 34.2 °F - 30.7 °F 87% 30.19 in 10.0 mi Calm Calm - N/A   Clear
9:25 PM 33.4 °F - 30.6 °F 89% 30.18 in 10.0 mi Calm Calm - N/A   Clear
9:45 PM 33.3 °F - 30.6 °F 90% 30.19 in 10.0 mi Calm Calm - N/A   Clear
10:05 PM 32.9 °F - 29.8 °F 88% 30.19 in 10.0 mi Calm Calm - N/A   Clear
10:20 PM 32.0 °F - 30.0 °F 92% 30.19 in 10.0 mi Calm Calm - N/A   Clear
10:45 PM 31.8 °F - 30.0 °F 93% 30.17 in 10.0 mi Calm Calm - N/A   Clear
11:05 PM 32.0 °F - 30.4 °F 94% 30.15 in 10.0 mi Calm Calm - N/A   Clear
11:25 PM 32.0 °F - 30.2 °F 93% 30.15 in 10.0 mi Calm Calm - N/A   Clear
11:45 PM 32.0 °F - 31.1 °F 96% 30.15 in 10.0 mi Calm Calm - N/A   Clear